Theta_e
287 287 287 286 286 286 286 286 286 286 286 286 286 287 287 287 287 287 287 287 287 287 287 287 287 287 287 287 287 287 287 287 288 288 288 288 288 288 288 288 288 288 288 288 288 288 288 288 288 288 289 289 289 289 289 290 290 290 290 290 291 291 291 291 291 291 292 292 292 292 292 292 292 292 292 292 292 291 292 292 292 292 293 293 294 294
287 286 286 286 286 286 286 286 286 286 286 286 286 286 286 287 287 287 287 287 287 287 287 287 287 287 287 287 287 287 287 287 287 287 287 287 287 287 287 288 288 288 288 288 288 288 288 288 288 289 289 289 289 289 289 290 290 290 290 290 290 291 291 291 291 291 291 291 291 291 291 291 291 291 291 291 291 291 291 291 292 292 292 292 293 293
286 286 286 286 286 286 286 286 286 286 286 286 286 286 287 287 287 287 287 287 287 287 287 287 287 287 286 286 286 286 287 287 287 287 287 287 287 287 287 287 287 287 287 288 288 288 288 288 288 289 289 289 289 289 289 290 290 290 290 290 290 290 290 290 290 290 290 290 290 290 290 291 291 291 291 291 291 291 292 292 292 292 292 292 292 293
286 286 286 286 286 286 286 286 286 286 286 286 287 287 287 287 287 287 287 287 287 287 287 287 286 286 286 286 286 286 286 286 286 287 287 287 287 287 287 287 287 287 287 287 288 288 288 288 288 289 289 289 289 289 289 289 289 289 289 289 289 289 289 290 290 290 290 290 290 290 290 290 290 290 290 291 291 291 291 291 292 292 292 292 292 292
286 286 286 286 286 286 286 286 286 286 286 287 287 287 287 287 287 287 287 287 287 287 286 286 286 286 286 286 286 286 286 286 286 286 286 286 286 286 286 287 287 287 287 287 288 288 288 288 288 288 288 289 289 289 289 289 289 289 289 289 289 289 289 289 289 290 290 290 290 290 290 290 290 290 290 290 290 290 290 291 291 291 291 291 291 291
286 286 286 286 286 286 286 286 286 287 287 287 287 287 288 288 287 287 287 287 286 286 286 286 286 286 286 286 285 285 286 286 286 286 286 286 286 286 286 286 287 287 287 287 287 288 288 288 288 288 288 288 288 288 288 288 288 288 289 289 289 289 289 289 289 289 289 289 289 289 289 289 289 290 290 290 290 290 290 290 290 290 290 290 291 291
286 286 286 286 286 286 286 286 287 287 287 288 288 288 287 287 287 287 286 286 286 286 286 286 286 285 285 285 285 285 285 285 285 285 285 285 286 286 286 286 287 287 287 287 287 287 288 288 288 288 288 288 288 288 288 288 288 288 288 288 288 289 289 289 289 289 289 289 289 289 289 289 289 289 289 289 289 289 289 289 290 290 290 290 290 290
286 286 286 286 286 286 287 287 287 287 288 288 287 287 287 286 286 286 286 286 285 286 285 285 285 285 285 285 285 285 285 285 285 285 285 285 285 286 286 286 286 287 287 287 287 287 287 287 287 287 287 287 288 288 288 288 288 288 288 288 288 288 288 288 288 288 288 288 288 288 288 288 288 288 289 289 289 289 289 289 289 289 289 290 290 290
286 286 286 286 287 287 287 288 288 288 288 287 287 287 286 286 286 285 285 285 285 285 285 285 285 285 285 284 284 284 284 285 285 285 285 285 286 286 286 286 286 286 287 287 287 287 287 287 287 287 287 287 287 287 287 287 287 287 287 287 287 287 287 287 287 287 288 288 288 288 288 288 288 288 288 288 288 288 288 288 289 289 289 289 289 290
286 286 287 287 287 288 288 288 288 287 287 286 286 286 285 285 285 285 285 285 285 285 285 285 285 284 284 284 284 284 284 285 285 285 285 286 286 286 286 286 286 286 286 286 286 286 286 286 286 287 287 287 287 287 287 287 287 287 287 287 287 287 287 287 287 287 287 287 287 287 288 288 288 288 288 288 288 288 288 288 289 289 289 289 289 289
287 287 287 288 288 288 288 287 287 286 286 285 285 285 285 285 285 285 285 285 285 285 284 284 284 284 284 284 284 284 285 285 285 285 285 285 285 286 286 286 286 286 286 286 286 286 286 286 286 286 286 286 286 286 286 286 286 286 286 286 286 286 286 286 287 287 287 287 287 287 288 288 288 288 288 288 288 289 289 289 289 289 289 289 289 290
288 288 288 288 287 287 287 286 286 285 285 285 285 285 285 285 285 285 285 285 284 284 284 284 284 284 284 284 285 285 285 285 285 285 285 285 285 285 285 285 285 285 285 285 285 285 285 285 286 286 286 286 286 286 286 286 286 286 286 286 286 286 286 286 286 287 287 287 287 288 288 288 288 288 288 288 289 289 289 289 289 289 289 290 290 290
288 288 288 287 287 286 285 285 285 285 285 285 285 285 285 285 284 284 284 284 284 284 284 284 284 284 284 285 285 285 285 285 285 285 285 285 285 285 285 285 285 285 285 285 285 285 285 285 285 285 285 285 285 285 285 285 285 285 285 286 286 286 286 286 287 287 287 287 288 288 288 288 288 288 288 288 288 288 288 289 289 289 289 289 289 290
288 287 286 286 286 285 285 285 285 285 285 285 284 284 284 284 284 284 284 284 284 284 284 284 284 285 285 285 285 285 285 285 285 285 285 285 285 285 285 285 285 285 285 285 285 285 285 285 285 285 285 285 285 285 285 285 285 285 285 286 286 286 286 287 287 287 287 288 288 288 288 288 288 288 288 288 288 288 288 288 288 289 289 289 289 289
287 286 286 286 285 285 285 285 285 284 284 284 284 284 284 284 284 284 284 284 284 284 284 285 285 285 285 285 285 285 285 285 284 284 285 285 285 285 285 285 285 285 285 284 284 284 284 284 284 284 284 284 284 284 285 285 285 285 286 286 286 286 287 287 287 287 287 287 288 288 288 288 288 288 288 288 288 288 288 288 288 288 288 289 289 289
286 286 285 285 285 285 285 284 284 284 284 284 284 284 284 284 284 284 284 284 285 285 285 285 285 285 285 285 284 284 284 284 284 284 285 285 285 285 284 284 284 284 284 284 284 284 284 284 284 284 284 284 284 285 285 285 285 286 286 286 286 286 287 287 287 287 287 287 287 288 288 288 288 288 288 288 288 288 288 288 288 288 288 288 288 288
286 285 285 285 285 285 284 284 284 284 284 284 284 284 284 284 284 284 285 285 285 285 285 285 285 285 285 284 284 284 284 284 284 284 284 284 284 284 284 284 284 284 284 284 284 284 284 284 284 284 284 284 284 285 285 285 285 286 286 286 286 286 287 287 287 287 287 287 287 287 287 288 288 288 288 288 288 288 288 288 288 288 288 288 288 288
286 285 285 285 285 285 284 284 284 284 284 284 284 284 284 284 285 285 285 285 285 285 285 285 285 284 284 284 284 284 284 284 284 284 284 284 284 284 284 284 284 284 284 284 284 284 284 284 284 284 284 284 285 285 285 285 285 286 286 286 286 286 286 286 287 287 287 287 287 287 287 288 288 288 288 288 288 288 289 289 289 289 289 289 289 289
286 285 285 285 284 284 284 284 284 284 284 284 284 285 285 285 285 285 285 285 285 285 285 284 284 284 284 284 284 284 284 284 284 284 284 284 284 284 284 284 284 284 284 284 284 284 284 284 284 284 284 284 285 285 285 285 285 285 286 286 286 286 286 286 286 287 287 287 287 288 288 288 288 288 288 288 289 289 289 289 289 289 289 289 289 289
285 285 285 284 284 284 284 284 284 284 284 284 284 285 285 284 285 285 285 285 285 284 284 284 284 284 283 284 284 284 284 284 284 284 284 284 284 284 284 284 284 284 284 284 284 284 284 284 284 284 284 284 284 285 285 285 285 285 285 286 286 286 286 286 287 287 287 287 287 288 288 288 288 288 288 288 288 289 289 289 289 289 289 289 289 289
284 284 284 284 284 284 284 284 284 284 284 285 285 285 285 285 285 285 285 284 284 284 284 283 283 283 283 283 283 283 284 284 284 284 284 284 284 284 284 284 284 284 284 284 284 284 284 284 284 284 284 284 284 284 285 285 285 285 285 286 286 286 286 286 287 287 287 287 287 288 288 288 288 288 288 288 288 289 289 289 289 289 289 289 290 290
284 284 284 284 284 284 284 284 284 284 284 284 285 285 285 285 285 285 284 284 284 283 283 283 283 283 283 283 283 283 283 283 284 283 283 283 283 284 284 284 284 284 284 284 284 284 284 284 284 284 284 284 284 284 284 285 285 285 285 286 286 286 286 286 287 287 287 287 287 288 288 288 288 288 289 288 289 288 289 289 289 289 289 289 290 290
284 284 284 284 284 284 284 284 284 284 284 285 285 285 285 285 285 284 284 283 283 283 283 283 283 283 283 283 283 283 283 283 283 283 283 283 283 284 283 284 284 284 284 284 284 284 284 284 284 284 284 284 284 284 284 285 285 285 285 286 286 286 286 286 287 287 287 287 287 288 288 288 288 288 289 289 289 289 289 289 289 289 289 289 289 290
284 284 284 284 284 284 284 284 285 285 285 285 286 285 285 284 284 284 283 283 283 283 283 283 283 283 283 283 283 283 283 283 283 283 283 283 283 283 283 284 284 284 284 284 284 284 284 284 284 283 283 284 284 284 284 285 285 285 285 286 286 286 286 286 287 287 287 287 287 288 288 288 288 288 288 289 289 289 289 289 289 289 289 289 289 289
284 284 284 284 285 285 285 285 286 286 286 286 285 285 284 284 283 283 283 283 283 283 283 283 283 283 283 283 283 283 283 283 283 283 283 283 283 283 283 283 284 284 284 284 284 284 284 284 283 284 284 284 284 284 284 285 285 285 285 286 286 286 286 286 287 287 287 287 287 288 288 288 288 288 288 288 289 289 289 289 289 289 289 289 290 290
284 285 285 285 285 286 286 286 286 285 285 284 284 284 283 283 283 283 283 283 283 283 283 283 283 283 283 283 282 282 282 282 283 283 283 283 283 283 283 283 284 284 284 284 284 284 284 283 284 284 284 284 284 284 284 284 285 285 285 286 286 286 286 286 286 287 287 287 287 287 288 288 288 288 288 288 289 289 289 289 289 290 290 290 290 290
285 285 285 285 285 285 285 284 284 284 284 283 283 283 283 283 283 283 282 282 282 282 282 282 282 282 282 282 282 282 282 282 282 282 283 283 283 283 283 283 284 284 284 283 283 283 283 284 284 284 284 284 284 284 284 284 285 285 285 285 285 286 286 286 286 286 287 287 287 287 287 288 288 288 288 289 289 289 289 289 290 290 290 290 290 290
285 285 285 284 284 284 283 283 283 283 283 283 283 283 283 283 282 282 282 282 282 282 282 282 282 282 282 282 282 282 282 282 282 282 283 283 283 283 283 283 283 283 283 283 283 283 283 283 283 284 284 284 284 284 284 284 284 285 285 285 285 285 285 286 286 286 286 287 287 287 287 288 288 288 288 289 289 289 289 289 290 290 290 290 290 290
284 284 283 283 283 283 282 282 282 282 282 282 282 282 282 282 282 282 282 282 282 282 282 282 282 282 282 282 282 282 282 282 282 282 283 283 283 283 283 283 283 283 283 283 283 283 283 283 284 284 284 284 284 284 284 284 284 284 284 284 285 285 285 285 286 286 286 287 287 287 287 288 288 288 288 289 289 289 289 289 289 290 290 289 289 289
283 283 282 282 282 282 281 281 281 281 281 281 282 282 282 282 282 282 282 282 282 282 282 282 282 282 282 282 282 282 282 282 282 282 282 283 283 283 283 283 283 283 283 283 283 283 283 284 284 284 284 284 284 284 284 284 284 284 284 284 284 285 285 285 286 286 286 286 287 287 287 288 288 288 288 288 289 289 289 289 289 289 289 289 289 289
282 282 281 281 281 281 281 281 281 281 281 281 281 281 281 281 281 281 281 281 281 281 282 282 282 282 282 282 282 282 282 282 282 282 282 282 282 283 283 283 283 283 283 283 283 283 283 283 284 284 284 284 284 284 284 284 284 284 284 284 284 284 285 285 285 286 286 286 287 287 287 287 288 288 288 288 288 288 289 289 289 289 289 289 289 289
281 281 281 281 281 280 280 280 281 281 281 281 281 281 281 281 281 281 281 281 281 281 281 281 281 282 282 282 282 282 282 282 282 282 282 282 282 282 282 283 283 283 283 283 283 283 283 283 283 284 284 284 284 284 284 284 284 284 284 284 284 284 285 285 285 285 286 286 286 286 287 287 287 287 287 288 288 288 288 288 288 289 289 289 289 289
281 281 280 280 280 280 280 280 281 281 281 281 281 281 281 281 281 281 281 281 281 281 281 281 281 281 281 281 281 282 282 282 282 282 282 282 282 282 282 283 283 283 283 283 283 283 283 283 283 283 284 284 284 284 284 284 284 284 284 284 284 284 285 285 285 285 285 286 286 286 286 286 287 287 287 287 287 288 288 288 288 288 289 289 289 289
280 280 280 280 280 280 280 281 281 281 281 281 281 281 281 281 281 281 281 281 281 281 281 281 281 281 281 281 281 281 282 282 282 282 282 282 282 282 282 282 282 283 283 283 283 283 283 283 283 284 284 284 284 284 284 284 284 284 284 284 284 284 285 285 285 285 285 285 285 285 286 286 286 286 286 287 287 287 287 288 288 288 289 289 289 289
280 280 280 280 280 280 281 281 281 281 281 281 281 281 281 281 281 281 281 281 281 281 281 281 281 281 281 281 281 282 282 282 282 282 282 282 282 282 282 282 282 283 283 283 283 283 283 283 284 284 284 284 284 284 284 284 284 284 284 284 284 284 285 285 285 285 285 285 285 285 285 285 286 286 286 286 287 287 287 288 288 288 289 289 289 289
280 280 280 280 280 281 281 281 281 281 281 281 281 281 281 281 281 281 281 281 281 281 281 281 281 281 281 281 281 282 282 282 282 282 282 282 282 282 282 282 283 283 283 283 283 283 283 283 283 284 284 284 284 284 284 284 284 284 284 284 284 284 284 285 285 285 285 285 285 285 285 285 286 286 286 286 287 287 287 288 288 288 288 289 289 289
280 280 280 280 280 280 281 280 281 280 280 280 280 280 280 280 280 280 280 281 281 281 281 281 281 281 281 282 282 282 282 282 282 282 282 282 282 282 282 283 283 283 283 283 283 283 283 283 283 284 284 284 284 284 284 284 284 284 284 284 284 284 285 285 285 285 285 285 285 285 285 286 286 286 286 286 286 287 287 287 287 288 288 288 288 289
280 280 280 280 280 280 280 280 280 280 280 280 280 280 280 280 280 280 280 280 281 281 281 281 281 281 282 282 282 282 282 282 282 282 282 282 283 283 283 283 283 283 283 283 283 283 283 283 283 284 284 284 284 284 284 284 284 284 284 284 285 285 285 285 285 285 285 285 285 285 285 286 286 286 286 286 286 286 287 287 287 287 288 288 288 288
280 280 280 280 280 280 280 280 280 280 280 280 280 280 280 280 280 280 280 281 281 281 281 281 282 282 282 282 282 282 283 283 283 283 283 283 283 283 283 283 283 283 283 283 283 283 283 283 283 284 284 284 284 284 284 284 284 285 285 285 285 285 285 285 285 285 285 285 285 285 285 285 286 286 286 286 286 287 287 287 287 287 287 288 288 288
280 280 280 280 280 280 280 280 280 280 280 280 280 280 280 280 280 280 280 281 281 281 281 282 282 282 282 282 282 282 282 282 282 282 282 282 282 283 283 283 283 283 283 283 283 283 283 283 284 284 284 284 284 284 284 285 285 285 285 285 285 285 285 285 285 285 285 285 285 285 285 285 286 286 286 286 287 287 287 287 287 287 287 287 288 288
280 280 280 280 280 280 280 280 280 280 280 280 280 280 280 280 280 280 280 281 281 281 281 282 282 282 282 282 282 282 282 282 282 282 282 282 282 283 283 283 283 283 283 283 283 283 284 284 284 284 284 284 284 285 285 285 285 285 285 285 285 285 285 285 285 285 285 285 285 285 286 286 286 286 286 286 287 287 287 287 287 287 287 287 288 288
280 280 280 280 279 279 279 279 279 280 280 280 280 280 280 280 280 280 281 281 281 281 281 282 282 282 282 282 282 282 282 282 282 282 282 282 282 283 283 283 283 283 284 284 284 284 284 284 284 284 285 285 285 285 285 285 285 285 285 285 285 285 285 285 285 285 285 285 285 285 286 286 286 286 286 286 287 287 287 287 287 287 287 288 288 288
280 280 279 279 279 279 279 279 279 280 280 280 280 280 280 280 280 280 281 281 281 281 281 281 282 282 282 282 282 282 282 282 282 282 282 282 283 283 283 283 283 284 284 284 284 285 285 285 285 285 285 285 285 285 285 285 285 285 285 285 285 285 285 285 285 285 285 285 285 286 286 286 286 286 286 287 287 287 287 287 287 287 288 288 288 288
280 279 279 279 279 279 279 279 279 280 280 280 280 280 280 280 280 281 281 281 281 281 281 281 281 282 282 282 282 282 282 282 282 282 282 283 283 283 283 283 284 284 284 285 285 285 285 285 285 285 285 285 285 285 285 285 285 285 285 285 285 285 285 285 285 285 285 285 286 286 286 286 286 286 287 287 287 287 287 287 287 287 288 288 288 288
279 279 279 279 279 279 279 279 279 279 280 280 280 280 280 281 281 281 281 281 281 281 281 281 281 281 282 282 282 282 282 282 282 282 282 283 283 283 284 284 284 284 285 285 285 285 285 285 285 285 285 285 285 285 285 285 285 285 285 285 285 285 285 285 285 285 285 286 286 286 286 286 286 286 287 287 287 287 287 287 287 287 288 288 288 288
279 279 279 279 279 279 279 279 279 279 280 280 280 280 280 281 281 281 281 281 281 281 281 281 281 282 282 282 282 282 282 282 282 283 283 283 283 283 284 284 284 284 285 285 285 285 285 286 286 286 286 286 286 286 285 285 285 285 285 285 285 285 285 285 285 285 285 286 286 286 286 286 286 286 287 287 287 287 287 287 287 287 288 288 288 289
279 279 279 279 279 279 279 279 279 279 280 280 280 280 280 280 281 281 281 281 281 281 281 281 281 282 282 282 282 282 282 282 283 283 283 283 283 284 284 284 284 285 285 285 285 285 286 286 286 286 286 286 286 286 286 285 285 285 285 285 285 285 285 285 285 286 286 286 286 286 286 286 286 287 287 287 287 287 287 287 287 288 288 288 289 289
279 279 279 279 279 279 279 279 279 279 280 280 280 280 280 280 281 281 281 281 281 281 281 281 281 282 282 282 282 282 282 283 283 283 283 284 284 284 284 284 284 284 285 285 285 285 286 286 286 286 286 286 286 286 286 285 285 285 285 285 285 285 285 286 286 286 286 286 286 286 286 286 286 286 286 286 286 287 287 287 287 288 288 289 289 290
279 279 279 279 279 279 279 279 279 279 279 280 280 280 280 280 280 280 281 281 281 281 281 281 282 282 282 282 282 282 283 283 283 283 284 284 284 284 284 284 284 285 285 285 285 285 286 286 286 286 286 286 286 286 286 285 285 285 285 285 286 286 286 286 286 286 286 286 286 286 286 286 286 286 286 286 286 287 287 287 288 288 288 289 289 290
279 279 279 279 279 279 279 279 279 279 279 279 280 280 280 280 280 280 280 281 281 281 281 281 282 282 282 282 282 283 283 283 283 284 284 284 284 284 284 284 284 285 285 285 285 286 286 286 286 286 286 286 286 286 286 286 286 286 286 286 286 286 286 286 286 286 286 286 286 286 286 286 286 286 286 286 287 287 287 288 288 288 289 289 289 290
278 278 279 279 279 279 279 279 279 279 279 279 280 280 280 280 280 280 280 281 281 281 281 281 282 282 282 282 283 283 283 283 284 284 284 284 284 284 284 284 284 285 285 285 286 286 286 286 286 286 286 286 286 286 286 286 286 286 286 286 286 286 286 286 285 285 285 285 285 285 285 285 286 286 286 287 287 287 288 288 288 288 289 289 289 290
Wind_Speed
20 20 20 20 21 22 22 21 22 23 24 24 24 24 25 25 26 26 26 26 26 27 27 28 28 29 30 30 31 31 31 31 31 31 31 31 31 31 31 32 32 33 33 34 34 35 35 35 34 34 34 34 34 34 34 34 34 34 34 34 34 34 34 34 34 34 34 34 34 35 35 34 34 34 34 35 35 36 36 36 36 35 34 33 33 33
20 20 20 20 21 22 22 22 21 22 24 25 25 25 25 26 26 26 26 25 25 26 26 27 28 29 30 30 30 30 30 30 30 30 30 30 31 31 32 32 33 34 34 35 35 35 35 34 34 34 34 34 34 34 34 34 34 34 34 34 34 34 34 34 34 34 35 34 34 34 35 35 35 35 35 34 35 35 35 36 36 36 36 35 35 34
21 21 21 20 20 21 22 23 22 22 24 25 26 26 26 26 26 25 25 24 25 25 26 27 28 29 29 29 29 28 28 28 29 29 30 31 32 32 33 33 34 34 35 35 35 34 34 34 34 34 34 34 34 34 34 34 34 34 34 34 34 34 34 34 34 34 34 34 34 34 34 34 34 34 34 34 34 34 34 35 35 35 35 35 35 35
21 21 21 21 21 21 22 23 24 24 24 25 25 25 25 25 24 23 23 24 25 26 27 27 28 28 28 28 27 27 27 28 29 30 31 32 32 33 33 34 34 34 34 34 34 34 34 34 34 34 34 34 34 34 34 34 34 34 34 34 34 34 34 34 34 34 34 34 34 34 34 34 34 34 33 33 33 34 34 34 34 34 34 34 35 35
21 21 22 22 22 22 23 23 24 24 24 24 23 23 23 23 22 23 24 25 26 27 27 27 27 26 26 26 26 27 27 28 30 31 32 32 33 33 33 33 34 34 34 33 33 33 33 33 34 34 34 34 34 34 34 34 34 34 34 34 34 34 34 34 34 34 34 34 34 34 34 34 33 33 33 33 33 33 34 34 34 34 34 34 34 35
21 21 22 22 22 23 23 23 23 23 23 22 21 21 21 22 23 24 25 26 26 27 27 26 26 25 25 25 26 27 28 29 30 31 32 32 33 33 33 33 33 33 33 33 33 33 33 33 33 34 34 34 34 34 34 34 34 34 34 34 34 34 34 34 34 33 33 33 33 33 33 33 33 33 33 33 33 33 33 33 33 34 34 34 34 35
22 21 21 22 23 24 23 22 22 21 21 21 21 21 22 23 25 26 26 27 26 26 26 25 25 24 24 25 26 27 28 29 30 31 31 31 31 31 32 32 32 32 33 33 33 33 33 33 33 33 33 33 34 34 34 34 34 33 33 33 33 33 33 33 33 33 33 33 33 32 32 32 32 32 32 32 32 32 32 32 33 33 33 34 34 34
22 23 22 22 23 24 23 21 19 18 19 20 22 24 25 26 26 26 26 26 26 25 24 24 24 24 24 25 26 27 28 29 30 30 30 30 30 31 31 31 32 32 32 32 32 32 32 33 33 33 33 33 34 34 34 33 33 33 33 33 33 33 33 33 32 32 32 32 32 32 32 32 31 31 31 31 31 31 31 32 32 32 33 33 33 34
22 23 23 22 22 21 21 20 18 17 18 21 23 25 26 27 27 26 25 25 24 23 23 23 24 25 25 26 26 27 28 29 29 30 30 30 30 30 31 31 31 32 31 31 31 32 32 32 33 33 33 33 33 33 33 33 33 33 32 32 32 32 32 32 32 32 32 31 31 31 31 31 31 31 31 31 31 31 31 31 32 32 33 33 33 33
22 22 22 22 20 18 17 18 19 19 20 22 24 25 26 26 26 25 24 23 23 22 22 23 24 25 26 27 27 27 28 29 29 29 30 30 30 30 30 30 30 30 30 31 31 31 32 32 32 33 33 33 33 32 32 32 32 32 32 31 31 31 31 31 31 31 31 31 31 30 30 30 30 30 30 30 31 31 31 31 32 32 33 33 33 34
21 20 19 18 17 16 16 18 21 23 24 26 26 25 24 23 23 23 23 23 23 23 23 23 24 25 26 27 27 27 28 28 29 29 29 28 28 28 29 29 29 29 30 30 30 31 31 31 32 32 32 32 32 31 31 31 31 31 30 30 30 30 30 30 30 30 30 30 30 30 30 30 30 31 31 31 31 32 32 32 32 33 33 33 34 34
18 17 16 16 16 18 20 22 24 25 26 25 24 23 22 21 21 22 22 22 23 23 24 25 25 26 26 26 27 27 27 27 28 28 28 27 27 26 26 27 27 28 29 29 29 30 30 30 30 31 31 31 30 30 30 30 30 29 29 29 29 29 29 29 30 30 30 30 31 31 31 31 31 32 32 32 32 33 33 33 33 33 33 33 34 34
17 16 16 17 19 20 22 24 24 24 23 22 20 20 20 21 21 21 22 22 23 24 25 26 26 26 26 26 25 25 26 26 27 27 27 26 26 25 26 26 27 28 28 29 29 29 29 29 30 30 30 29 29 29 29 29 29 29 29 29 29 29 29 30 30 31 31 31 32 32 32 32 33 33 33 33 33 33 33 33 33 33 33 34 34 34
17 18 18 19 20 21 22 23 22 22 21 20 20 20 21 22 22 22 22 22 23 24 25 26 26 26 25 24 23 23 24 26 27 27 27 26 25 25 26 27 28 29 29 29 29 29 29 29 29 29 28 28 28 28 28 28 28 28 29 29 29 30 30 31 31 32 32 32 32 33 33 33 33 33 33 33 33 33 33 34 34 34 34 34 34 34
18 18 18 18 19 21 21 21 21 21 21 21 21 21 22 22 22 21 21 22 23 25 25 25 25 25 24 22 22 22 24 25 26 27 27 27 26 26 26 27 29 29 29 29 29 29 29 28 28 28 28 28 27 27 28 28 29 29 30 30 31 31 32 32 32 33 33 33 33 33 33 33 32 32 33 33 33 33 33 34 34 34 34 34 34 35
19 18 17 17 19 20 20 21 21 21 21 21 21 21 21 21 21 21 20 21 22 23 22 22 21 21 23 23 23 22 23 25 25 26 27 28 28 27 27 27 28 29 29 28 28 29 28 28 27 27 27 27 28 28 29 30 30 31 31 32 32 32 33 33 33 33 33 33 33 32 32 32 32 32 33 33 33 33 33 34 34 34 34 35 35 35
20 20 19 18 19 19 21 21 21 21 21 22 21 21 20 20 20 20 20 21 20 20 19 18 12 9 14 23 25 24 23 24 25 26 27 28 29 28 27 27 27 28 29 28 28 28 28 27 27 27 27 28 28 29 30 31 32 32 32 33 33 33 32 32 33 33 33 33 33 33 33 33 33 33 33 33 33 33 34 34 34 35 35 35 35 36
20 20 20 19 19 19 20 20 21 21 21 21 20 20 20 20 20 21 22 21 20 18 18 18 14 9 8 16 23 26 25 25 25 26 26 28 29 29 27 26 27 28 28 28 28 27 27 27 28 28 28 29 30 31 32 32 32 32 33 33 33 33 33 33 33 34 34 34 33 33 33 33 33 33 33 33 34 34 34 34 34 35 35 35 35 36
21 20 19 19 19 20 20 20 20 20 20 19 19 20 21 22 22 22 21 21 20 19 18 18 18 18 17 20 25 28 27 26 25 26 26 27 28 29 27 26 26 26 27 27 27 27 27 28 28 29 29 30 31 31 32 32 32 32 33 33 33 34 34 34 34 34 34 34 34 34 33 33 33 33 33 33 33 34 34 34 34 34 35 35 35 35
21 20 19 20 20 20 20 20 20 20 20 21 22 23 24 25 24 23 22 21 20 20 21 21 21 22 23 25 27 29 27 26 25 25 25 26 27 28 26 25 25 26 27 27 27 27 27 28 29 29 29 30 30 31 31 32 33 33 34 34 34 34 34 34 34 34 34 33 33 33 33 33 33 33 33 33 33 33 33 34 34 34 34 35 35 35
21 21 21 21 20 20 20 21 21 21 22 24 25 25 24 23 22 22 21 20 20 22 23 22 22 24 25 26 28 29 28 26 24 23 23 24 25 26 25 24 24 25 27 28 28 28 28 28 29 29 29 29 30 31 32 33 34 34 34 34 34 34 34 34 34 33 33 33 33 33 32 32 33 33 33 33 33 34 34 34 34 34 35 35 35 35
22 22 22 21 21 21 22 22 23 23 24 24 24 22 21 20 19 20 21 22 22 23 24 24 24 26 26 27 29 30 28 26 24 23 22 20 22 25 26 24 24 25 27 28 28 28 27 28 28 28 29 30 31 32 33 34 34 34 34 34 34 34 33 33 33 33 32 32 32 32 32 32 32 33 33 33 34 34 34 34 35 35 35 35 35 36
22 22 22 22 22 22 23 23 23 24 24 24 23 22 20 19 20 21 23 24 24 24 25 25 26 26 27 27 28 28 27 25 23 23 21 14 17 24 26 25 24 25 26 27 28 28 28 28 29 29 30 31 32 32 33 33 33 33 33 33 33 33 32 32 32 32 32 32 32 32 32 33 33 33 33 34 34 35 35 35 35 35 35 35 35 36
21 22 23 23 23 24 25 25 26 26 25 24 24 24 24 23 22 23 23 24 24 23 24 24 24 25 25 25 25 25 25 23 22 21 19 16 18 23 25 25 24 25 26 27 28 28 28 29 30 30 30 31 31 32 32 32 32 32 32 32 31 31 31 31 32 32 32 32 32 33 33 33 33 33 33 34 34 34 34 35 35 36 36 36 36 36
22 23 24 25 26 28 28 27 27 26 26 26 25 24 24 24 25 25 25 23 22 21 22 22 21 21 22 23 23 23 24 23 22 21 19 18 20 23 25 24 23 24 26 28 28 28 28 30 30 31 31 31 31 31 31 31 30 30 30 30 30 31 31 32 32 32 33 33 33 33 33 33 33 33 33 34 34 34 34 35 35 36 36 37 37 37
24 25 27 28 28 28 28 27 27 27 27 27 26 24 24 24 23 23 22 21 20 20 19 18 17 17 20 21 21 22 23 23 22 21 20 19 20 22 24 24 23 24 26 28 29 28 28 30 31 31 31 30 30 29 29 28 28 29 29 30 31 31 32 32 33 33 33 33 33 33 33 33 33 33 33 33 33 34 34 34 35 35 36 37 37 37
26 27 27 27 26 26 25 26 26 26 26 26 24 23 23 23 21 20 20 19 19 18 17 13 11 13 17 18 18 20 23 23 23 22 21 20 19 19 21 23 23 24 26 28 29 29 28 29 30 30 30 29 28 27 27 27 28 29 30 31 31 32 32 32 32 32 32 32 32 32 32 32 32 32 33 33 33 33 34 34 35 35 36 36 36 36
25 25 24 23 23 23 24 24 25 25 24 24 23 22 21 20 19 18 18 18 18 18 16 13 10 9 10 14 18 21 24 24 23 22 21 20 17 17 20 22 24 24 26 27 29 29 28 27 27 28 28 27 27 27 27 27 28 29 30 31 31 31 31 31 31 31 31 31 31 31 31 32 32 32 32 32 33 33 33 34 34 35 35 36 34 32
21 21 21 21 21 22 23 23 23 22 22 21 20 19 18 18 17 17 18 19 18 17 16 16 15 13 13 16 20 22 24 24 23 21 19 18 16 17 21 23 24 24 25 25 27 28 27 25 24 24 25 26 27 27 28 28 29 29 30 30 30 30 30 30 30 30 30 31 31 31 31 31 31 32 32 32 32 33 33 34 34 34 34 34 33 32
20 20 20 21 21 21 21 21 21 20 20 19 19 18 17 17 17 18 18 18 18 17 17 17 17 17 17 17 15 15 18 22 22 19 18 16 16 18 22 22 23 23 23 21 18 17 20 23 23 23 23 25 27 28 28 29 29 29 29 29 29 29 29 29 29 30 30 30 30 31 31 31 31 31 31 32 32 33 34 34 34 33 33 33 33 33
21 21 21 21 20 20 20 19 19 19 19 18 18 17 17 17 17 17 17 17 17 17 18 18 18 18 18 11 7 5 8 20 23 21 19 17 17 19 21 21 22 23 22 18 9 5 11 16 22 25 24 25 27 28 28 28 28 28 28 28 29 29 29 29 29 29 29 30 30 30 30 30 31 31 31 32 32 33 34 34 34 33 33 32 31 30
21 20 20 20 19 19 19 18 18 18 18 18 18 17 17 17 17 17 17 17 17 18 18 19 19 19 19 14 10 8 10 22 26 24 21 19 19 21 22 21 22 23 23 21 16 10 8 7 17 27 27 27 28 28 28 28 28 27 27 28 28 29 29 28 28 28 29 29 29 30 30 30 31 31 32 32 32 33 33 34 33 32 32 31 29 29
20 19 19 19 19 19 18 18 18 18 18 18 18 18 17 17 17 17 17 18 18 18 19 19 20 20 20 19 18 18 22 26 27 25 23 20 19 20 22 22 22 23 24 24 23 20 14 11 17 26 29 28 28 28 28 28 28 27 27 27 28 28 29 28 28 28 29 29 29 29 30 30 30 30 31 31 32 32 33 33 32 31 31 30 29 28
19 19 19 19 19 19 18 18 18 18 18 18 18 18 18 18 18 18 18 18 18 19 19 20 20 20 20 19 20 22 26 28 27 25 23 21 20 21 22 22 22 23 23 22 22 22 20 21 22 23 24 28 29 28 28 27 27 27 26 26 27 28 28 28 28 28 29 29 29 29 29 29 29 29 30 30 30 31 31 31 32 32 31 32 32 31
18 18 18 18 18 18 18 18 18 18 18 18 18 18 18 18 18 19 19 19 20 20 21 21 22 22 22 21 20 22 25 29 29 27 24 23 22 22 23 23 23 22 21 21 20 19 18 22 24 23 22 24 27 28 28 27 27 27 27 27 27 28 28 28 28 28 29 29 29 29 29 29 28 29 29 30 30 30 31 33 34 34 34 35 35 34
18 18 18 18 18 18 18 18 18 19 19 19 19 19 19 19 20 20 21 21 21 22 22 23 24 24 25 24 24 25 27 30 31 29 27 25 24 23 23 24 25 24 21 21 21 19 17 19 23 24 22 18 18 23 28 29 28 28 28 28 28 28 28 28 28 28 29 29 29 29 29 28 28 28 29 30 31 32 34 35 35 35 35 35 35 35
17 17 18 18 17 18 18 18 19 19 19 19 20 20 20 20 21 22 23 23 24 25 25 25 25 26 26 26 27 29 30 31 32 31 30 29 28 26 24 25 27 26 23 21 22 21 19 16 17 19 20 15 14 18 25 29 30 29 28 28 28 28 28 28 28 27 28 28 29 29 29 29 29 29 30 31 31 32 33 33 34 34 34 33 34 34
17 17 17 18 18 18 18 19 19 19 19 20 21 21 22 23 23 24 25 25 26 26 26 26 26 26 27 28 29 31 32 33 34 34 34 32 31 29 26 26 27 26 25 23 23 22 20 14 11 11 11 16 20 23 26 28 28 28 29 29 29 28 28 27 27 27 27 28 29 29 29 29 29 29 29 30 30 30 30 30 31 32 32 32 33 33
17 17 17 18 18 18 18 19 19 20 21 21 22 22 23 24 24 25 25 25 25 25 25 25 25 26 27 29 30 31 31 32 32 33 34 34 32 30 28 26 26 27 26 26 24 23 22 17 13 11 9 12 18 24 28 27 27 27 29 30 30 29 27 27 26 27 27 28 28 29 29 29 29 28 28 28 28 28 29 31 31 31 31 31 31 32
17 17 18 18 18 18 19 19 20 21 22 23 23 23 23 23 23 24 24 24 24 24 24 24 24 25 26 28 29 29 30 31 32 32 32 32 32 30 28 27 27 27 27 26 25 25 25 22 22 21 20 16 17 22 26 27 27 28 28 26 25 26 28 28 28 28 28 28 28 28 28 28 28 27 27 28 28 29 29 30 32 32 31 30 30 30
17 18 18 19 19 19 20 21 21 22 22 22 22 22 22 22 22 22 22 23 23 23 23 23 23 25 26 28 29 30 30 30 30 30 30 31 31 31 29 29 28 27 27 26 26 25 25 24 24 24 24 23 23 24 25 27 28 29 28 25 25 27 30 30 28 27 27 27 27 27 27 28 28 28 28 29 29 29 31 31 32 32 33 32 31 29
17 17 18 19 20 20 21 22 22 22 22 22 22 22 21 20 21 21 22 23 23 23 23 23 23 24 26 28 29 29 29 28 28 28 29 29 30 30 30 30 29 27 27 26 26 26 25 25 24 25 25 25 23 22 23 27 29 29 27 26 27 29 30 29 27 26 25 25 26 26 27 27 28 28 28 28 29 31 32 32 32 32 33 33 32 31
17 18 19 20 20 21 22 22 22 22 21 21 21 21 21 20 21 21 22 22 23 23 23 23 23 23 24 26 27 28 28 28 28 28 28 28 28 28 29 30 29 28 27 26 26 26 26 26 25 25 25 26 25 23 22 25 28 29 28 28 27 24 20 24 27 27 26 26 27 27 27 27 27 28 28 28 29 30 31 31 32 33 33 32 32 32
18 19 19 20 21 21 21 21 21 21 21 21 21 21 21 21 21 21 21 22 23 23 23 23 22 22 22 23 25 26 28 28 28 28 27 27 27 27 28 28 28 28 28 26 25 25 26 26 26 27 27 26 25 24 24 25 27 27 28 28 26 23 20 23 27 29 28 28 28 28 27 27 28 29 29 30 30 30 30 30 31 31 32 33 32 32
18 18 19 20 20 20 20 20 21 21 21 21 21 22 22 21 21 21 21 22 23 23 23 22 21 20 20 21 23 24 26 27 27 27 27 27 26 26 26 26 27 27 27 27 26 25 24 24 25 27 27 26 25 24 24 24 25 26 27 27 26 26 26 28 28 28 28 28 29 30 30 29 29 29 29 29 30 30 30 29 30 31 32 32 32 31
18 18 19 19 19 20 20 21 21 21 21 22 22 22 22 22 22 21 22 22 22 22 23 22 20 18 18 20 22 23 24 25 26 27 27 26 26 26 26 26 26 26 26 26 26 26 25 25 26 27 27 26 25 25 26 25 24 24 26 27 26 26 26 27 27 27 27 28 29 29 30 29 28 27 27 28 29 30 30 29 29 30 31 31 31 30
18 18 19 19 19 20 20 20 20 20 21 21 21 22 22 22 22 22 22 22 22 21 22 21 20 19 19 20 21 21 21 23 25 26 26 27 27 27 26 26 26 26 26 26 27 27 27 27 27 27 25 23 22 23 25 26 25 25 25 26 26 25 25 26 27 28 27 27 28 28 28 28 27 27 27 28 29 30 30 30 29 30 30 30 30 28
18 19 19 20 20 20 20 20 20 20 20 21 22 23 23 22 22 22 23 22 22 21 21 20 20 20 20 21 22 22 22 22 23 25 26 26 26 26 26 26 26 26 26 26 27 27 27 28 28 27 26 23 21 20 23 25 25 25 25 25 25 24 24 26 28 28 28 28 28 28 28 27 26 26 27 28 28 29 30 30 30 29 29 29 28 27
18 19 19 19 19 19 20 20 20 20 21 21 22 23 23 23 23 22 22 22 22 21 20 20 19 20 20 21 22 23 24 24 24 24 25 25 25 26 26 27 27 28 28 28 27 27 26 26 25 25 24 24 23 22 23 24 25 25 25 24 23 23 24 26 28 29 29 29 29 29 28 27 26 26 25 24 24 26 30 30 30 29 29 28 27 27
18 18 19 19 19 19 19 20 20 20 21 21 22 23 24 24 23 23 22 22 21 21 20 20 20 20 20 21 22 23 23 23 23 24 24 25 25 25 25 26 27 27 27 27 26 25 23 22 21 21 21 20 21 22 22 23 23 23 23 23 23 23 24 26 28 29 29 29 28 28 27 27 27 25 24 22 22 24 27 28 29 29 29 28 27 27
18 18 18 19 19 19 20 20 20 21 21 21 22 23 23 23 23 23 22 22 21 21 21 21 20 20 20 21 22 23 23 23 22 23 24 25 25 24 24 25 25 24 23 21 20 18 15 13 13 16 19 19 18 18 19 21 21 21 21 22 22 23 24 25 27 29 29 29 28 27 27 26 25 24 22 20 19 18 19 23 26 29 29 29 29 29
Wind_Direction
301 303 304 306 305 304 302 302 303 303 303 303 303 303 303 302 301 300 299 299 299 299 298 298 297 297 297 297 297 296 296 296 296 296 296 297 297 297 297 297 297 297 297 296 296 296 296 295 295 294 293 293 292 291 291 290 290 289 289 288 288 287 287 286 286 285 285 285 285 285 284 285 285 285 284 284 283 282 282 283 283 283 283 282 282 280
303 303 304 305 304 303 302 302 303 302 303 303 303 302 302 301 300 300 299 298 298 298 298 298 298 297 297 296 296 296 296 296 296 297 297 297 298 298 298 298 298 297 297 296 296 295 295 294 294 293 292 292 292 291 291 290 290 290 289 289 288 288 288 287 287 287 286 286 286 286 285 285 284 284 283 283 282 281 280 279 279 279 279 279 279 279
305 305 304 304 303 302 302 302 302 301 300 300 300 300 300 299 299 299 299 299 299 298 298 298 298 297 297 296 296 296 297 297 297 298 298 299 299 299 299 299 298 297 297 296 295 295 294 294 293 293 292 292 292 292 292 291 291 290 290 289 289 289 289 288 288 287 287 287 286 286 285 284 284 283 282 282 281 280 279 278 277 277 277 277 277 277
304 304 304 304 303 301 300 300 301 300 299 298 298 298 298 298 297 297 298 299 299 299 299 298 297 297 297 297 297 297 298 299 299 299 300 300 300 300 299 299 298 297 296 296 295 295 294 294 294 294 293 293 293 293 292 292 291 291 290 290 290 289 289 288 288 288 287 287 286 285 285 284 283 283 282 281 280 280 279 278 278 277 277 277 276 276
301 302 302 303 302 300 299 299 299 299 298 297 297 298 299 298 298 298 299 299 299 299 299 299 298 297 297 298 298 299 300 301 301 301 301 300 300 299 299 298 297 297 296 296 296 295 295 295 294 294 294 294 293 293 293 292 291 291 290 290 289 289 289 288 288 287 287 286 286 285 285 284 284 283 282 281 281 280 279 278 278 278 277 276 276 275
299 299 300 300 299 298 298 298 298 298 297 297 297 298 299 299 300 300 300 300 300 299 299 299 298 298 298 299 300 301 302 302 302 301 300 300 299 299 298 298 297 297 297 297 296 296 295 295 295 294 294 294 293 293 292 292 291 291 291 290 290 289 289 289 288 288 287 287 287 286 286 285 285 284 283 282 281 280 279 278 278 277 276 275 275 274
298 297 298 297 296 296 295 295 296 297 298 299 300 301 301 301 301 300 300 300 300 300 299 299 299 300 300 301 302 303 303 302 301 300 300 299 299 299 299 298 298 297 297 297 296 296 296 295 295 295 294 294 293 293 292 292 292 292 291 291 291 290 290 290 289 289 289 288 288 287 287 286 285 285 284 283 282 281 280 279 278 277 276 275 274 274
298 297 296 295 295 295 294 293 294 296 299 301 304 305 305 303 302 301 300 300 300 300 301 301 302 302 303 303 304 303 303 302 301 300 300 300 299 299 299 298 298 297 297 297 296 296 296 295 295 295 294 294 293 293 293 293 292 292 292 292 291 291 291 290 290 290 289 289 289 288 288 287 286 285 284 283 282 281 280 279 278 277 277 276 275 274
293 294 294 293 293 294 295 296 297 298 301 303 305 306 306 305 304 302 302 301 302 303 304 305 305 304 304 303 303 303 301 300 299 299 299 300 300 299 299 299 298 298 297 297 297 296 296 296 295 295 294 294 294 293 293 293 293 292 292 291 291 291 291 290 290 290 290 289 289 289 288 287 286 285 284 283 282 281 280 279 278 277 276 276 275 274
287 288 290 292 292 292 294 298 302 304 305 304 303 303 303 303 304 304 304 304 304 305 306 306 305 305 304 304 303 302 301 300 298 298 299 299 299 299 299 299 298 298 298 298 298 297 297 296 296 295 295 294 294 293 293 293 292 292 291 291 291 291 291 290 290 290 289 289 288 288 287 286 285 284 283 282 281 280 279 277 276 276 275 274 273 273
287 287 289 292 295 296 296 299 303 306 306 304 302 301 300 301 303 305 306 306 306 306 306 305 304 304 304 304 304 303 302 301 300 299 299 299 299 300 299 299 299 298 299 299 298 298 297 297 296 295 295 294 294 293 293 293 292 292 292 291 291 291 290 290 289 289 288 288 287 287 286 285 284 283 283 281 280 279 278 277 276 275 274 274 273 272
289 291 293 297 301 303 303 303 303 304 305 304 304 303 303 303 304 305 306 306 307 307 306 305 304 303 302 302 303 302 302 301 300 301 302 302 302 302 301 301 300 300 300 300 299 298 297 297 296 296 295 294 294 294 293 293 292 292 292 292 291 291 290 289 288 288 287 287 287 286 286 285 284 284 283 282 281 280 280 279 278 277 276 275 274 274
291 296 299 303 305 305 305 305 304 304 304 304 304 304 305 306 307 306 305 304 305 305 305 304 303 302 301 301 301 301 301 301 301 301 302 303 303 304 303 303 302 302 301 301 300 299 298 298 297 296 295 294 294 293 293 293 293 292 292 291 291 290 289 288 288 288 287 287 287 287 286 285 285 284 284 283 282 281 281 280 279 278 277 276 275 275
298 302 303 304 303 303 303 303 303 303 303 303 303 304 305 306 307 307 305 303 303 304 304 302 301 300 301 301 300 301 301 301 301 302 302 302 303 304 304 303 302 301 301 300 299 298 298 298 297 296 295 294 294 293 293 293 293 293 292 291 291 290 290 289 289 289 288 288 288 287 287 286 285 284 284 283 282 281 280 280 279 278 277 276 275 274
304 305 304 302 301 301 301 301 301 301 302 303 304 304 305 306 306 305 304 303 303 303 303 301 300 299 300 301 303 303 303 303 302 302 302 302 303 304 304 303 302 301 300 299 298 297 298 297 296 295 295 294 293 294 294 294 294 294 293 293 292 291 291 290 290 289 289 289 288 288 287 286 285 284 283 283 282 281 280 280 279 278 277 276 275 274
303 303 300 299 299 299 300 300 301 301 302 304 304 305 305 304 304 303 302 301 302 302 302 301 301 302 303 303 304 305 305 304 303 302 303 302 302 303 304 303 301 300 299 298 297 297 297 296 295 294 294 294 294 294 295 295 295 294 294 293 293 292 292 291 291 290 290 289 289 288 287 287 285 285 284 283 282 281 280 279 278 277 276 275 274 273
299 298 297 297 297 298 299 300 300 300 301 302 302 301 300 300 301 301 300 299 299 299 300 301 303 305 305 306 306 306 307 305 304 303 302 301 301 302 303 301 299 297 297 297 296 296 297 296 295 294 294 294 295 295 296 296 295 295 295 294 293 293 293 292 292 291 291 290 290 289 288 287 286 285 284 283 281 280 279 278 277 277 276 275 274 273
296 296 296 296 296 297 299 299 299 299 299 299 299 298 298 299 299 299 298 297 296 297 300 303 303 304 305 305 305 305 307 306 305 303 302 300 300 301 302 300 297 295 295 295 295 296 296 295 295 295 295 295 295 296 296 296 296 296 295 295 294 294 294 293 293 292 291 291 290 289 288 287 286 285 284 283 282 281 280 278 277 276 276 275 274 273
295 295 296 295 296 296 297 296 296 296 297 298 299 300 301 300 299 297 295 294 295 298 302 303 302 300 299 298 300 302 305 305 304 302 300 299 299 300 301 299 296 294 294 294 295 296 297 296 296 295 295 295 296 296 296 297 297 296 296 296 295 294 294 293 292 292 291 290 289 288 288 287 287 286 285 284 283 282 281 280 279 278 276 275 274 273
296 295 294 294 295 295 294 293 293 295 296 298 300 301 299 298 297 295 294 296 298 301 302 301 299 297 297 296 297 300 303 304 303 300 298 297 297 298 300 299 297 295 294 295 296 297 298 297 297 296 296 296 296 297 297 297 297 297 296 296 295 294 293 293 292 291 291 290 289 289 288 288 287 286 286 285 284 283 282 281 280 279 277 276 275 274
295 294 293 293 293 292 292 292 293 295 297 298 299 298 295 294 294 295 297 301 303 303 301 298 296 295 296 295 296 298 300 302 300 298 296 295 295 297 299 299 297 296 295 296 297 298 298 298 297 297 297 297 297 298 297 297 297 296 296 296 295 294 293 293 292 291 291 290 289 289 288 288 287 286 286 285 285 284 283 282 281 280 279 277 276 274
291 291 291 291 290 289 289 291 292 293 294 295 294 292 291 292 296 300 304 305 304 301 298 295 293 293 293 293 293 295 297 297 296 295 295 294 294 295 298 300 299 297 296 296 298 299 299 299 298 298 298 298 297 297 297 297 297 296 296 296 295 295 294 293 293 292 291 290 290 289 288 288 287 286 286 285 285 285 284 284 282 281 280 279 277 276
286 287 289 289 289 288 288 290 291 291 291 291 289 289 291 296 301 304 305 303 300 296 294 292 292 291 291 290 291 292 294 294 294 293 293 290 291 295 298 300 299 297 295 296 299 301 301 301 300 299 299 298 297 297 297 297 297 297 296 296 296 295 295 294 293 293 292 291 291 290 289 289 288 287 286 286 285 285 285 284 283 282 281 280 279 278
285 286 288 288 288 288 288 289 289 290 292 293 294 296 298 300 301 301 299 297 295 292 292 292 292 291 291 291 292 292 294 295 295 295 292 289 290 294 297 299 298 296 296 297 300 302 303 301 300 300 299 298 297 297 297 297 297 297 297 297 296 296 296 295 294 294 293 292 291 291 290 289 288 288 287 286 285 284 283 282 282 282 282 281 280 279
287 287 288 288 289 289 290 291 292 294 296 299 300 301 302 301 300 298 296 294 293 292 293 293 293 292 292 294 294 294 295 296 296 295 292 289 290 292 295 297 297 296 297 299 301 303 303 302 301 300 300 299 298 298 298 298 298 298 298 298 298 297 297 296 295 294 294 293 292 291 290 289 289 288 287 286 285 284 283 282 281 281 281 281 281 280
290 289 290 291 292 292 293 295 296 297 299 299 300 301 301 301 301 299 297 295 294 294 295 294 292 292 294 296 295 295 296 297 297 295 292 290 290 292 294 297 297 297 298 300 302 303 303 302 301 301 301 300 299 299 299 299 299 299 299 299 299 298 297 296 296 295 294 293 292 291 291 290 289 288 287 286 285 285 284 284 283 282 282 283 283 282
291 292 293 294 296 297 298 298 298 299 299 299 299 300 301 301 300 298 294 294 295 296 295 294 293 294 296 296 295 295 297 298 298 296 293 291 289 290 293 297 299 299 300 301 302 302 302 301 300 300 300 300 300 300 300 300 301 301 300 300 299 298 297 297 296 295 295 294 293 292 291 290 289 288 287 286 286 286 285 285 284 284 285 285 285 284
294 296 298 299 300 300 300 300 300 300 299 299 300 300 300 299 296 293 291 293 295 296 294 292 292 293 295 296 296 297 298 297 297 296 296 293 290 290 294 299 301 302 302 302 302 302 301 299 299 299 299 300 301 302 302 303 303 302 301 300 299 298 298 297 297 296 295 295 294 293 292 291 290 289 288 288 287 287 287 286 286 287 287 287 286 284
300 302 303 303 302 302 302 302 301 301 300 300 300 299 298 294 290 287 289 292 294 294 292 291 291 292 293 296 297 298 297 295 296 298 301 299 294 293 297 300 302 303 304 304 304 303 301 299 299 299 300 301 303 304 304 305 304 303 302 301 300 299 298 298 297 297 296 295 295 294 293 292 291 290 289 289 289 288 288 287 288 288 288 287 285 283
308 308 306 305 304 304 304 303 302 301 300 300 299 298 296 292 288 285 287 289 290 290 290 291 291 292 294 296 298 297 296 295 297 302 306 304 297 295 299 300 301 302 305 306 306 304 302 302 302 301 302 303 304 305 305 305 305 304 303 302 301 300 299 299 298 298 297 297 296 295 294 293 292 291 291 290 289 289 288 288 289 288 287 286 284 282
310 309 308 307 306 306 305 304 302 302 301 300 299 298 296 292 289 286 286 285 285 285 286 288 290 291 292 295 297 295 294 296 299 304 307 303 297 295 299 300 300 301 302 304 304 303 304 305 305 305 305 305 305 305 305 305 305 304 303 302 301 300 300 300 300 299 298 298 297 296 295 294 293 292 291 290 289 289 289 289 289 288 287 285 282 280
309 308 307 307 307 306 305 304 302 301 301 300 299 298 297 294 291 289 287 285 283 283 284 286 287 288 289 287 285 284 287 293 296 301 303 300 295 295 297 297 298 299 300 299 296 293 299 304 306 306 306 305 305 304 305 305 304 304 303 302 301 300 300 301 301 300 300 299 298 297 295 294 293 292 291 290 290 289 289 289 288 288 286 284 282 279
308 307 306 306 306 305 304 303 302 301 301 300 300 299 297 295 294 291 289 287 285 283 284 285 286 287 286 285 283 282 285 288 293 297 300 298 295 295 296 296 296 297 298 297 294 291 289 291 298 302 304 304 304 304 304 305 304 303 302 301 300 300 301 301 301 301 300 299 298 297 296 295 293 292 291 290 290 289 289 289 288 287 285 284 282 280
307 306 306 306 305 305 304 303 303 302 302 301 300 299 298 296 295 293 291 289 287 285 283 283 283 285 286 286 285 284 285 287 291 295 298 297 294 293 294 294 295 296 297 296 295 293 290 291 294 298 302 303 303 303 303 304 304 303 302 301 300 299 300 301 300 300 299 298 297 296 295 295 294 292 292 291 290 289 289 289 288 287 285 284 283 282
306 306 306 306 306 306 305 305 305 304 304 302 301 300 299 298 296 295 293 291 289 287 284 282 281 281 282 283 284 284 286 288 291 294 296 294 292 291 292 292 293 294 294 294 294 294 293 293 294 296 299 301 302 302 302 303 303 303 302 300 299 298 298 299 299 298 297 297 296 295 294 294 293 292 291 291 290 289 290 290 289 288 287 285 284 283
306 306 306 307 307 307 306 306 306 306 305 304 303 301 300 299 297 296 294 293 291 289 286 284 281 279 278 278 278 279 282 286 290 292 292 290 289 288 289 290 291 292 291 291 292 292 292 293 294 295 297 298 300 301 302 304 304 303 302 300 299 298 297 297 297 296 296 295 294 293 293 292 291 291 290 290 290 290 291 290 290 289 288 287 285 283
306 306 307 307 307 307 307 307 307 307 306 305 304 303 301 300 298 297 296 294 292 291 289 287 284 281 278 276 276 277 279 283 286 288 288 287 286 284 284 286 288 288 287 287 288 289 290 291 293 294 295 294 295 299 302 304 305 304 302 300 300 299 298 297 296 295 293 292 291 291 291 291 290 290 289 290 290 291 291 290 290 290 290 288 287 284
307 307 307 308 308 308 307 307 307 306 306 305 304 303 302 300 299 297 296 294 292 291 290 290 287 285 283 281 280 280 281 283 284 286 287 287 285 283 282 283 284 284 282 281 282 284 286 287 290 292 290 292 293 295 299 302 303 302 301 301 300 299 297 297 296 294 292 291 291 290 290 289 289 289 289 289 290 290 290 290 290 291 291 291 290 287
308 307 307 308 308 308 307 306 305 305 304 304 303 302 302 301 299 298 296 295 294 292 291 291 290 289 288 287 286 286 285 285 286 287 288 288 286 284 282 281 281 282 280 279 278 279 280 281 283 285 287 292 294 295 297 298 299 300 300 302 301 299 298 297 297 295 293 291 290 289 289 288 288 288 288 289 289 290 290 291 292 292 292 291 290 289
308 307 307 307 307 307 305 304 303 303 303 302 302 301 301 301 300 299 299 298 297 295 294 293 292 291 291 290 290 289 289 288 289 289 289 288 287 285 282 280 280 280 280 279 277 276 277 278 280 282 284 287 291 294 296 297 297 299 301 302 301 300 299 299 297 295 293 290 288 287 287 288 288 289 289 289 289 289 288 290 291 292 291 290 289 288
308 307 307 307 307 306 304 303 302 302 301 301 301 301 301 301 301 302 301 301 300 299 298 297 296 295 294 293 292 291 290 290 290 290 289 289 288 287 283 281 279 279 279 278 276 275 274 275 277 280 282 284 287 290 292 294 296 298 299 299 297 297 298 298 296 294 292 289 288 287 288 289 290 290 290 290 289 288 287 287 288 289 289 288 285 284
307 306 306 306 306 305 304 303 303 303 302 301 301 301 301 300 301 302 302 301 301 301 300 300 299 298 297 296 295 294 293 293 292 292 292 291 291 289 287 284 281 279 278 278 277 276 274 274 275 278 281 284 286 289 291 293 294 296 296 295 296 297 298 298 296 294 292 291 290 290 290 290 291 291 291 290 290 289 289 288 287 286 286 285 283 281
306 305 305 305 305 304 304 304 304 304 304 303 302 301 301 301 301 301 301 300 300 300 300 299 299 298 296 296 297 297 298 297 296 296 295 294 293 292 290 287 284 282 280 279 279 279 278 277 276 277 280 283 285 286 289 291 293 294 294 293 294 296 297 298 298 297 295 293 292 292 291 291 291 292 291 291 290 290 290 289 289 287 285 284 282 281
303 303 304 304 305 306 306 306 305 305 305 303 302 301 301 301 301 300 299 299 299 299 299 299 298 296 294 294 295 298 300 301 301 300 298 297 296 296 294 291 288 285 283 280 279 280 282 281 281 281 282 283 284 285 287 289 291 292 292 292 291 290 288 291 295 297 296 295 294 294 293 293 294 294 294 293 292 292 292 291 290 289 287 286 284 282
303 304 305 306 307 306 306 306 306 305 305 304 302 302 303 303 302 301 299 299 299 299 299 298 298 296 295 295 296 299 300 302 302 302 301 301 301 300 298 294 291 289 286 283 280 278 279 281 283 284 285 284 283 282 283 286 288 289 290 290 290 288 285 287 290 293 294 294 295 295 295 295 296 296 295 295 295 294 293 292 291 290 290 289 287 285
305 306 306 307 307 306 305 306 306 306 305 304 304 303 304 304 304 303 301 299 298 298 297 297 296 293 292 295 297 299 299 300 301 302 303 303 303 302 300 297 294 291 289 286 283 280 278 277 280 283 286 285 284 282 282 283 285 287 289 290 290 290 289 290 290 291 291 292 293 295 296 297 297 297 296 295 296 296 295 293 292 291 290 290 289 287
307 307 307 307 306 306 305 306 306 306 305 305 304 305 305 305 305 304 303 301 299 298 297 297 294 292 290 292 295 296 297 298 299 300 302 303 303 303 302 300 297 294 291 288 286 283 280 278 277 279 281 282 283 284 284 284 284 285 287 289 291 291 291 291 292 292 292 292 292 294 296 299 299 298 297 297 297 297 297 296 294 292 292 291 290 289
307 307 307 307 306 306 306 306 306 306 305 305 305 306 306 306 305 305 304 302 300 298 297 296 294 293 292 293 294 295 295 296 296 298 300 301 302 303 303 302 301 299 296 292 289 285 283 280 278 277 276 276 278 280 282 283 283 283 285 288 289 290 290 291 293 295 296 294 294 294 296 298 297 297 297 298 298 298 298 298 297 296 295 294 293 293
306 305 305 305 304 304 304 305 305 305 305 305 305 306 306 306 305 304 302 301 299 298 296 295 294 294 294 294 295 296 296 296 296 297 298 301 302 303 304 304 305 304 302 298 295 291 288 285 283 280 277 274 274 276 279 281 282 283 285 287 288 290 291 293 295 297 298 297 296 296 295 295 294 293 294 294 295 296 298 299 299 300 300 299 299 298
305 304 304 304 304 303 303 304 305 304 304 304 304 305 305 306 305 304 302 301 299 297 295 294 294 294 294 294 295 296 297 297 297 297 298 301 302 303 303 304 305 305 304 303 301 299 297 294 292 290 288 281 278 277 279 282 285 287 289 289 291 292 294 295 296 298 298 298 298 297 296 295 293 292 290 289 290 294 297 299 301 302 303 304 304 303
305 304 304 304 304 303 304 304 304 303 303 303 303 303 304 304 304 304 303 302 301 298 296 295 294 293 294 294 295 296 297 297 297 297 299 301 302 303 302 303 303 303 303 303 303 303 302 300 300 301 301 298 291 286 285 288 291 294 294 294 294 296 296 297 297 298 298 298 297 297 295 294 293 291 289 288 290 294 298 300 302 303 305 306 307 307